TimeCST,TemperatureF,Dew PointF,Humidity,Sea Level PressureIn,VisibilityMPH,Wind Direction,Wind SpeedMPH,Gust SpeedMPH,PrecipitationIn,Events,Conditions,WindDirDegrees,DateUTC
12:52 AM,59.0,48.0,67,29.53,10.0,South,19.6,29.9,N/A,,Clear,170,2012-03-07 06:52:00
1:52 AM,57.9,48.9,72,29.52,10.0,South,19.6,-,N/A,,Clear,170,2012-03-07 07:52:00
2:52 AM,57.9,48.0,70,29.49,10.0,SSE,15.0,24.2,N/A,,Clear,160,2012-03-07 08:52:00
3:52 AM,57.0,48.0,72,29.51,10.0,SSE,10.4,-,N/A,,Clear,150,2012-03-07 09:52:00
4:52 AM,55.4,46.4,72,29.51,10.0,South,11.5,-,N/A,,Clear,190,2012-03-07 10:52:00
5:52 AM,57.0,48.0,72,29.52,10.0,South,11.5,-,N/A,,Overcast,190,2012-03-07 11:52:00
6:27 AM,44.6,39.2,81,29.55,10.0,WNW,18.4,-,N/A,,Overcast,300,2012-03-07 12:27:00
6:34 AM,42.8,37.4,81,29.55,10.0,WNW,13.8,23.0,N/A,,Overcast,290,2012-03-07 12:34:00
6:52 AM,41.0,36.0,82,29.58,10.0,NW,13.8,-,N/A,,Overcast,310,2012-03-07 12:52:00
6:59 AM,41.0,35.6,81,29.58,10.0,NW,13.8,-,N/A,,Overcast,320,2012-03-07 12:59:00
7:26 AM,39.2,33.8,81,29.60,10.0,NW,13.8,-,N/A,,Overcast,310,2012-03-07 13:26:00
7:52 AM,37.9,33.1,83,29.63,10.0,WNW,16.1,-,N/A,,Overcast,300,2012-03-07 13:52:00
8:36 AM,37.4,33.8,87,29.65,8.0,NW,17.3,-,N/A,,Overcast,310,2012-03-07 14:36:00
8:52 AM,37.0,33.1,86,29.67,7.0,NW,18.4,27.6,N/A,,Overcast,310,2012-03-07 14:52:00
9:52 AM,36.0,33.1,89,29.71,4.0,NW,18.4,29.9,N/A,,Overcast,320,2012-03-07 15:52:00
10:30 AM,35.6,33.8,93,29.73,4.0,NNW,25.3,29.9,0.00,Rain,Light Rain,330,2012-03-07 16:30:00
10:52 AM,36.0,32.0,86,29.77,9.0,NW,24.2,31.1,0.00,,Overcast,320,2012-03-07 16:52:00
11:21 AM,35.6,33.8,93,29.77,4.0,NW,15.0,-,N/A,,Overcast,320,2012-03-07 17:21:00
11:29 AM,35.6,33.8,93,29.78,5.0,NW,18.4,-,N/A,,Overcast,320,2012-03-07 17:29:00
11:52 AM,36.0,33.1,89,29.81,6.0,NNW,17.3,-,N/A,,Overcast,330,2012-03-07 17:52:00
12:33 PM,39.2,30.2,70,29.80,10.0,NNW,19.6,-,N/A,,Overcast,330,2012-03-07 18:33:00
12:50 PM,39.2,30.2,70,29.81,10.0,NNW,20.7,-,N/A,,Overcast,330,2012-03-07 18:50:00
12:52 PM,39.9,30.9,70,29.82,10.0,NNW,21.9,-,N/A,,Overcast,330,2012-03-07 18:52:00
1:52 PM,39.9,30.0,68,29.85,10.0,NW,20.7,25.3,N/A,,Overcast,310,2012-03-07 19:52:00
2:52 PM,39.0,28.9,67,29.86,10.0,NW,26.5,32.2,N/A,,Overcast,320,2012-03-07 20:52:00
3:52 PM,39.9,27.0,60,29.88,10.0,NNW,19.6,26.5,N/A,,Overcast,330,2012-03-07 21:52:00
4:52 PM,37.0,27.0,67,29.93,10.0,NNW,23.0,29.9,N/A,,Overcast,330,2012-03-07 22:52:00
5:52 PM,35.1,26.1,70,29.95,10.0,NNW,20.7,28.8,N/A,,Overcast,340,2012-03-07 23:52:00
6:52 PM,35.1,25.0,67,30.02,10.0,NNW,21.9,-,N/A,,Overcast,330,2012-03-08 00:52:00
7:52 PM,34.0,25.0,70,30.05,10.0,NNW,19.6,-,N/A,,Overcast,330,2012-03-08 01:52:00
8:52 PM,33.1,24.1,70,30.06,10.0,NW,19.6,27.6,N/A,,Overcast,320,2012-03-08 02:52:00
9:52 PM,33.1,24.1,70,30.09,10.0,NW,15.0,25.3,N/A,,Overcast,320,2012-03-08 03:52:00
10:52 PM,32.0,23.0,69,30.13,10.0,NW,23.0,34.5,N/A,,Overcast,320,2012-03-08 04:52:00
11:52 PM,32.0,23.0,69,30.15,10.0,NW,20.7,-,N/A,,Overcast,320,2012-03-08 05:52:00